Flag for Canada Weather past 2 weeks in Longueuil, Quebec, Canada

Now
64 °F

Mild.


Feels Like: 64 °F
Forecast: 55 / 81 °F
Wind: 3 mph from North

Location: Mc Tavish

Current Time: Sep 5, 2015 at 2:35:12 AM

Latest Report: Sep 5, 2015 at 2:00 AM


Visibility: N/A

Pressure: 30.21 "Hg

Humidity: 67%

Dew point: 53 °F

Location of LongueuilLocation

Historic Weather in Longueuil — Graph

°F

Longueuil temperature yesterday

Maximum temperature yesterday: 77 °F (at 4:00 PM)
Minimum temperature yesterday: 59 °F (at 6:00 AM)
Average temperature yesterday: 68 °F

Past Weeks' High & Low Weather Summary

 TemperatureHumidityPressure
High81 °F (Aug 24, 4:00 PM)100% (Aug 21, 6:00 AM)30.24 "Hg (Aug 21, 6:00 AM)
Low59 °F (Aug 28, 6:00 AM)32% (Sep 4, 3:00 PM)29.76 "Hg (Aug 24, 4:00 PM)
Average70 °F70%30.00 "Hg
* Reported Aug 21 1:00 AM — Sep 5 1:00 AM, Longueuil, Weather by CustomWeather, © 2015

Note: Actual official high and low records may vary slightly from our data, if they occured in-between our weather recording intervals... More about our weather records

Advertising

Longueuil weather history for previous 24 hours

 ConditionsComfort  
Time TempWeatherWind HumidityBarometerVisibility
1:00 AM
Sat, Sep 5
65 °FMild.3 mph66%30.22 "HgN/A
12:00 AM66 °FMild.2 mph62%30.22 "HgN/A
11:00 PM
Fri, Sep 4
68 °FMild.3 mph57%30.22 "HgN/A
10:00 PM69 °FMild.3 mph58%30.24 "HgN/A
9:00 PM70 °FMild.5 mph54%30.23 "HgN/A
8:00 PM72 °FMild.5 mph52%30.22 "HgN/A
7:00 PM73 °FMild.3 mph48%30.21 "HgN/A
6:00 PM75 °FMild.7 mph43%30.21 "HgN/A
5:00 PM77 °FMild.5 mph34%30.19 "HgN/A
4:00 PM77 °FPleasantly warm.6 mph34%30.18 "HgN/A
3:00 PM77 °FMild.7 mph32%30.19 "HgN/A
2:00 PM76 °FMild.5 mph33%30.19 "HgN/A
1:00 PM74 °FMild.7 mph43%30.20 "HgN/A
12:00 PM71 °FMild.7 mph51%30.21 "HgN/A
11:00 AM68 °FMild.6 mph56%30.20 "HgN/A
10:00 AM66 °FMild.6 mph63%30.20 "HgN/A
9:00 AM63 °FMild.7 mph69%30.18 "HgN/A
8:00 AM61 °FCool.6 mph71%30.16 "HgN/A
7:00 AM60 °FCool.6 mph76%30.13 "HgN/A
6:00 AM59 °FCool.6 mph77%30.11 "HgN/A
5:00 AM60 °FCool.6 mph74%30.11 "HgN/A
4:00 AM61 °FCool.6 mph69%30.10 "HgN/A
3:00 AM62 °FCool.7 mph63%30.08 "HgN/A
2:00 AM64 °FMild.6 mph56%30.07 "HgN/A
Weather by CustomWeather, © 2015

See weather overviewHow to use our weather pages